Location: Casilda
(33.0440°S, 61.1680°W)
Time: 13:37:13
(UTC-03:00)

ISS - Pass Details

Date: 25 July 2021
Orbit: 419 x 421 km, 51.6° (Epoch: 04 August)

Event Time Altitude Azimuth Distance (km) Brightness Sun altitude
Exits shadow 06:23:01 12° 172° (S) 1,436 -1.1 -20.3°
Drops below altitude 10° 06:23:21 10° 167° (SSE) 1,526 -0.9 -20.3°
Sets 06:25:56 0° 147° (SSE) 2,397 0.4 -19.7°
